JF7ELG-13 Weather Reports


time (UTC)temp
C
wind
direction
speed
KPH
gust
KPH
rain 1hr
cm
rain 24hr
cm
rain mn
cm
humidity
%
barometer
mb
20260504224836 15 131 0.0 3.2 0.00 0.00 0.00 53 1014.5
20260504223328 15 110 0.0 3.2 0.00 0.00 0.00 57 1014.3
20260504221831 14 94 0.0 3.2 0.00 0.00 0.00 58 1013.9
20260504220324 13 101 0.0 4.8 0.00 0.00 0.00 60 1013.7
20260504214847 12 112 0.0 6.4 0.00 0.00 0.00 61 1013.5
20260504213324 12 99 0.0 3.2 0.00 0.00 0.00 63 1013.5
20260504211827 12 88 0.0 4.8 0.00 0.00 0.00 63 1013.0
20260504210347 11 116 0.0 3.2 0.00 0.00 0.00 65 1013.1
20260504204843 11 101 0.0 3.2 0.00 0.00 0.00 66 1013.0
20260504203353 11 107 0.0 8.0 0.00 0.00 0.00 65 1012.5
20260504201830 11 111 0.0 1.6 0.00 0.00 0.00 64 1012.0
20260504200325 10 119 0.0 1.6 0.00 0.00 0.00 64 1011.6
20260504194823 10 112 0.0 3.2 0.00 0.10 0.00 64 1011.2
20260504193331 10 108 0.0 3.2 0.00 0.10 0.00 65 1011.1
20260504191836 10 94 0.0 1.6 0.00 0.10 0.00 65 1011.0
20260504190330 10 83 0.0 1.6 0.00 0.10 0.00 65 1010.6
20260504184833 10 105 0.0 4.8 0.00 0.20 0.00 65 1010.4
20260504183331 10 104 0.0 1.6 0.00 0.20 0.00 67 1010.3
20260504181834 10 105 0.0 4.8 0.00 0.20 0.00 66 1010.0
20260504180330 10 126 0.0 4.8 0.00 0.20 0.00 66 1009.8
20260504174835 10 107 0.0 3.2 0.00 0.20 0.00 65 1009.4
20260504173328 10 111 0.0 1.6 0.00 0.20 0.00 65 1009.2
20260504171825 11 83 0.0 3.2 0.00 0.20 0.00 64 1008.8
20260504170315 11 113 0.0 9.7 0.00 0.20 0.00 64 1008.4
20260504160329 11 118 0.0 9.7 0.00 0.20 0.00 60 1006.2
20260504150321 12 106 0.0 3.2 0.00 0.20 0.00 64 1004.9
20260504140316 13 116 1.6 9.7 0.00 0.20 0.00 60 1002.6
20260504130331 15 133 1.6 8.0 0.00 0.20 0.05 54 999.6
20260504110318 16 120 3.2 17.7 0.00 0.20 0.05 56 996.8
20260504100323 17 109 1.6 12.9 0.00 0.20 0.05 57 996.1
20260504081837 18 82 3.2 19.3 0.00 0.20 0.05 54 994.7
20260504080349 19 127 4.8 17.7 0.00 0.20 0.05 54 994.3
20260504070329 20 84 3.2 14.5 0.00 0.20 0.05 56 993.5
20260504050317 22 100 1.6 4.8 0.00 0.20 0.05 53 993.8
20260504044821 23 137 3.2 9.7 0.00 0.20 0.05 56 994.1
20260504043316 22 114 4.8 9.7 0.00 0.20 0.05 56 994.1
20260504041819 22 60 0.0 6.4 0.00 0.20 0.05 56 993.9
20260504040330 22 103 0.0 6.4 0.00 0.20 0.05 59 994.0
20260504034831 23 99 3.2 8.0 0.00 0.20 0.05 55 993.7
20260504033349 23 99 1.6 8.0 0.00 0.20 0.05 58 993.6
20260504031830 23 108 1.6 6.4 0.00 0.20 0.05 54 993.4
20260504030347 23 68 0.0 4.8 0.00 0.20 0.05 56 993.4
20260504024848 23 112 0.0 3.2 0.00 0.20 0.05 55 993.5
20260504023322 24 20 0.0 1.6 0.00 0.20 0.05 59 993.6
20260504021825 24 97 0.0 1.6 0.00 0.20 0.05 61 993.6
20260504020316 23 46 1.6 3.2 0.00 0.20 0.05 62 993.5
20260504014834 23 89 0.0 1.6 0.00 0.20 0.05 61 993.7
20260504013323 22 63 0.0 6.4 0.00 0.20 0.05 62 993.6
20260504011822 22 104 0.0 1.6 0.00 0.20 0.05 62 993.8
20260504010316 22 102 0.0 1.6 0.00 0.20 0.05 64 993.8
20260504004815 22 100 0.0 3.2 0.00 0.20 0.05 65 993.9
20260504003336 22 112 0.0 3.2 0.00 0.20 0.05 69 993.8
20260504001828 22 94 0.0 1.6 0.00 0.20 0.05 70 993.8
20260504000312 21 108 0.0 3.2 0.00 0.20 0.05 72 993.7
20260503234846 21 88 0.0 1.6 0.00 0.20 0.05 78 993.5
20260503233337 20 113 0.0 3.2 0.00 0.20 0.05 80 993.4
20260503231818 19 91 0.0 3.2 0.00 0.20 0.05 85 993.3
20260503230336 19 91 0.0 1.6 0.00 0.20 0.05 87 993.2